Hourly Data Report for October 19, 2015

All times are specified in Local Standard Time (LST). Add 1 hour to adjust for Daylight Saving Time where and when it is observed.

KITCHENER/WATERLOO
ONTARIO

43°27'39.000" N
80°22'43.000" W
321.60 m
6144239
71368
YKF

Download Data

Hourly Data (October 2015)
Hourly Data Report for October 19, 2015
Temp Definition
°C
Dew Point Temp Definition
°C
Rel Hum Definition
%
Wind Dir Definition
10's deg

Wind Spd Definition
km/h
Visibility Definition
km
Stn Press Definition
kPa
Hmdx Definition


Wind Chill Definition


Weather Definition


TIME
00:00 Legend Double Dagger -4.0 -4.4 97 8 4 16.1 99.00   -6 LegendNANA
01:00 Legend Double Dagger -3.4 -4.5 92 15 4 16.1 98.99   -5 LegendNANA
02:00 Legend Double Dagger -3.8 -4.5 95 18 4 16.1 99.00   -5 LegendNANA
03:00 Legend Double Dagger -3.2 -4.8 89 17 4 16.1 98.97   -5 LegendNANA
04:00 Legend Double Dagger -3.0 -5.0 86 16 5 16.1 98.98   -5 LegendNANA
05:00 Legend Double Dagger -3.5 -5.7 85 16 5 16.1 98.94   -6 LegendNANA
06:00 Legend Double Dagger -3.6 -5.5 87   0 16.1 98.88     LegendNANA
07:00 Legend Double Dagger -2.4 -4.5 86 20 4 16.1 98.84   -4 LegendNANA
08:00 Legend Double Dagger 0.9 -1.5 84 20 8 16.1 98.78     LegendNANA
09:00 Legend Double Dagger 5.8 2.3 78 20 15 16.1 98.72     LegendNANA
10:00 Legend Double Dagger 8.8 3.1 68 19 28 16.1 98.62     LegendNANA
11:00 Legend Double Dagger 12.3 3.1 53 21 24 16.1 98.53     LegendNANA
12:00 Legend Double Dagger 13.6 2.7 47 20 32 16.1 98.36     LegendNANA
13:00 Legend Double Dagger 14.4 3.5 48 19 34 16.1 98.19     LegendNANA
14:00 Legend Double Dagger 13.9 1.9 44 20 41 16.1 98.08     LegendNANA
15:00 Legend Double Dagger 14.3 1.4 41 21 43 16.1 97.97     LegendNANA
16:00 Legend Double Dagger 13.7 3.2 49 22 35 16.1 97.93     LegendNANA
17:00 Legend Double Dagger 13.2 2.6 48 21 37 16.1 97.86     LegendNANA
18:00 Legend Double Dagger 12.8 2.9 51 20 34 16.1 97.80     LegendNANA
19:00 Legend Double Dagger 13.2 3.6 52 21 34 16.1 97.76     LegendNANA
20:00 Legend Double Dagger 13.6 3.4 50 22 30 16.1 97.73     LegendNANA
21:00 Legend Double Dagger 14.0 4.1 51 23 30 16.1 97.84     LegendNANA
22:00 Legend Double Dagger 13.8 3.6 50 23 24 16.1 97.84     LegendNANA
23:00 Legend Double Dagger 13.7 3.0 48 23 28 16.1 97.83     LegendNANA

Notes on Data Quality.

Legend

  • E = Estimated
  • M = Missing
  • NA = Not Available
  • ‡ = Partner data that is not subject to review by the National Climate Archives
Date modified: